User: anonymous   Login
Location: Unspecified
(0.0000°N, 0.0000°E)
Time: 12:58:17
(UTC+00:00)
Language:

COSMOS 2488 - Orbit

View from above orbital plane
View from above orbital plane
View from above satellite
View from above satellite

Ground track
Ground track

The orbit data is extracted from the following two-line orbital elements,

1 39483U 13076A   17352.18993850  .00000034  00000-0  17215-3 0  9991
2 39483  82.4841 302.4826 0020890  21.7586 338.4370 12.42883778180613
Epoch (UTC): 18 December 2017 04:33:30
Eccentricity: 0.0020890
inclination: 82.4841°
perigee height: 1478 km
apogee height: 1511 km
right ascension of ascending node: 302.4826°
argument of perigee: 21.7586°
revolutions per day: 12.42883778
mean anomaly at epoch: 338.4370°
orbit number at epoch: 18061

The dashed part of the orbit path shows where the satellite is in the earth's shadow,  

DLR